OpenBCM V1.08-5-g2f4a (Linux)

Packet Radio Mailbox

IZ3LSV

[San Dona' di P. JN]

 Login: GUEST





  
LU9DCE > KEPS     01.11.16 01:59l 186 Lines 9073 Bytes #999 (0) @ WW
BID : 11977_LU9DCE
Read: GUEST IV3JER
Subj: TLE OF oct 2016
Path: IZ3LSV<IW8PGT<CX2SA<LU9DCE
Sent: 161031/2348Z @:LU9DCE.TOR.BA.ARG.SOAM #:11977 [TORTUGUITAS] $:11977_LU9DC
From: LU9DCE@LU9DCE.TOR.BA.ARG.SOAM
To  : KEPS@ALL

OSCAR 3
1  1293U 65016F   16304.89956482 +.00000129 +00000-0 +11132-3 0  9991
2  1293 070.0728 105.8160 0017447 184.4361 175.6599 14.06111302637627
OSCAR 5
1  4321U 70008B   16304.78934536 -.00000027 +00000-0 +11496-3 0  9998
2  4321 101.7832 008.3556 0027576 251.4075 220.5196 12.52169065137320
OSCAR 6
1  6236U 72082B   16304.88566767 -.00000041 +00000-0 +21821-4 0  9997
2  6236 101.6730 267.6429 0004463 044.9297 339.5832 12.53133631014506
OSCAR 7
1  7530U 74089B   16304.88202206 -.00000050 +00000-0 -40491-4 0  9994
2  7530 101.5948 272.4240 0012404 047.7983 007.1764 12.53623868919890
OSCAR 8
1 10703U 78026B   16304.88923870 -.00000210 +00000-0 -11572-3 0  9997
2 10703 098.8519 268.7177 0006132 243.2018 170.1291 13.99209020972300
OSCAR 10
1 14129U 83058B   16304.62921508 +.00000211 +00000-0 +00000-0 0  9992
2 14129 026.8442 071.2894 6008567 243.8389 009.3823 02.05865209223093
OSCAR 11 (UoSAT 2)
1 14781U 84021B   16304.94291116 +.00000248 +00000-0 +36977-4 0  9993
2 14781 097.7324 352.6673 0007499 223.2610 136.8016 14.82818400735378
OSCAR 16 (PACSAT)
1 20439U 90005D   16304.82013095 +.00000030 +00000-0 +26993-4 0  9990
2 20439 098.5848 239.9431 0011793 116.3235 301.3154 14.32653504398319
OSCAR 17 (DOVE)
1 20440U 90005E   16304.80401796 +.00000049 +00000-0 +33693-4 0  9994
2 20440 098.5654 239.3281 0011955 103.3583 277.6503 14.33045767398562
OSCAR 18 (WEBERSAT)
1 20441U 90005F   16304.78151866 +.00000043 +00000-0 +31851-4 0  9990
2 20441 098.5684 238.6168 0012505 111.6297 300.5101 14.32701164398411
OSCAR 19 (LUSAT)
1 20442U 90005G   16304.88901704 +.00000030 +00000-0 +27112-4 0  9997
2 20442 098.5533 237.9937 0012883 103.6516 256.6103 14.32836374398724
JAS 1B (FUJI 2)
1 20480U 90013C   16304.92990251 -.00000019 +00000-0 +29407-4 0  9995
2 20480 099.0229 115.3795 0540186 190.4386 297.7625 12.83412953252266
COSMOS 2123
1 21089U 91007A   16304.85545100 +.00000016 +00000-0 +94879-6 0  9999
2 21089 082.9240 068.0264 0029738 029.3243 082.0985 13.74641070290843
OSCAR 22 (UoSAT 5)
1 21575U 91050B   16304.90755452 +.00000055 +00000-0 +31750-4 0  9996
2 21575 098.7637 309.7743 0006223 261.5776 098.4707 14.40767401328060
OSCAR 23 (KITSAT 1)
1 22077U 92052B   16304.82197228 -.00000078 +00000-0 -64703-4 0  9990
2 22077 066.0840 086.9941 0004758 193.6274 276.2266 12.86515580137516
KITSAT B
1 22825U 93061C   16304.89962440 +.00000012 +00000-0 +22455-4 0  9999
2 22825 098.7779 262.1013 0007370 283.7235 076.3126 14.29974387204364
POSAT 1
1 22826U 93061D   16304.91319625 +.00000032 +00000-0 +29950-4 0  9993
2 22826 098.7722 262.2237 0007846 273.2047 086.8237 14.30300979204557
ITAMSAT
1 22828U 93061F   16304.89126622 +.00000013 +00000-0 +22499-4 0  9995
2 22828 098.7629 261.0873 0008892 238.3783 121.6532 14.30611583172926
EYESAT A
1 22829U 93061G   16304.86264736 +.00000010 +00000-0 +21239-4 0  9990
2 22829 098.7667 263.6113 0008836 228.6041 184.0778 14.30946445205066
RADIO ROSTO
1 23439U 94085A   16304.92414447 -.00000062 +00000-0 -54758-3 0  9998
2 23439 064.8159 229.9838 0167534 284.7652 137.4053 11.27565199899563
JAS 2
1 24278U 96046B   16304.78603997 -.00000015 +00000-0 +22049-4 0  9999
2 24278 098.5825 212.2452 0349815 211.3825 146.6013 13.53071164997593
TMSAT
1 25396U 98043C   16304.88532718 +.00000029 +00000-0 +30857-4 0  9993
2 25396 098.5549 248.4439 0001539 283.2042 076.8966 14.24414655951306
TECHSAT 1B
1 25397U 98043D   16304.85967141 +.00000001 +00000-0 +19486-4 0  9998
2 25397 098.5817 246.3652 0000867 007.6981 352.4211 14.23606849950944
SEDSAT 1
1 25509U 98061B   16304.34669322 +.00000261 +00000-0 +38750-4 0  9990
2 25509 031.4323 289.2219 0346982 148.3305 213.8697 14.30237034941746
PAN SAT
1 25520U 98064B   16304.87845380 +.00001658 +00000-0 +51081-4 0  9997
2 25520 028.4558 105.7681 0005070 344.2148 015.8289 15.28013585998854
ISS (ZARYA)
1 25544U 98067A   16304.87782578 +.00005242 +00000-0 +85556-4 0  9992
2 25544 051.6439 101.2578 0007101 126.7131 031.9955 15.54390870026095
OSCAR 36 (UOSAT 12)
1 25693U 99021A   16304.89513809 +.00000020 +00000-0 +21060-4 0  9998
2 25693 064.5547 112.3324 0011321 328.3557 031.6866 14.80692783945944
OPAL
1 26063U 00004C   16304.88127502 +.00000016 +00000-0 +25311-4 0  9991
2 26063 100.2029 260.0308 0035877 234.3983 125.3853 14.36639523878253
SAUDISAT 1A
1 26545U 00057A   16304.84038826 +.00000255 +00000-0 +47375-4 0  9999
2 26545 064.5544 078.3788 0055261 259.1682 100.3202 14.84648692870291
TIUNGSAT 1
1 26548U 00057D   16304.58840298 +.00000408 +00000-0 +59256-4 0  9998
2 26548 064.5523 357.5660 0048838 255.2893 104.2800 14.88864759871718
SAUDISAT 1B
1 26549U 00057E   16304.88905583 +.00000189 +00000-0 +40876-4 0  9995
2 26549 064.5531 111.0111 0059464 262.1641 097.2712 14.83272310869426
AMSAT OSCAR 40
1 26609U 00072B   16304.57995930 -.00000068 +00000-0 +00000-0 0  9998
2 26609 006.9355 273.5679 7964753 036.9283 357.3915 01.25587511073338
PCSAT
1 26931U 01043C   16304.49372917 +.00000029 +00000-0 +42924-4 0  9991
2 26931 067.0512 323.8235 0005490 272.7257 087.3215 14.30432198787429
SAPPHIRE
1 26932U 01043D   16304.49949123 -.00000007 +00000-0 +29342-4 0  9997
2 26932 067.0561 325.8233 0004074 259.6130 100.4512 14.30229262787451
RUBIN 2
1 27605U 02058A   16304.90559268 +.00000103 +00000-0 +35775-4 0  9998
2 27605 064.5551 087.9758 0053017 184.9411 175.1176 14.74849927745601
SAUDISAT 1C
1 27607U 02058C   16304.95080132 +.00000240 +00000-0 +55406-4 0  9999
2 27607 064.5541 106.0294 0052222 185.0856 174.9723 14.75236832745164
MOZHAYETS 4
1 27939U 03042A   16304.93501171 +.00000266 +00000-0 +56450-4 0  9998
2 27939 097.9079 091.5386 0011998 230.0962 243.1590 14.66478883699570
AMSAT ECHO
1 28375U 04025K   16304.86895124 +.00000055 +00000-0 +29687-4 0  9999
2 28375 098.3379 237.3295 0081370 255.0315 104.1856 14.41807856648712
HAMSAT
1 28650U 05017B   16304.93473605 +.00000601 +00000-0 +70198-4 0  9991
2 28650 097.6233 281.4854 0023886 166.0855 194.1026 14.88465661621992
SSETI-EXPRESS
1 28894U 05043E   16304.88572556 +.00000135 +00000-0 +36141-4 0  9991
2 28894 097.8543 107.1109 0017662 157.3687 202.8297 14.61391313586378
MOZ.5/SAFIR/RUBIN 5/SL-8
1 28898U 05043G   16304.89854091 +.00000127 +00000-0 +35490-4 0  9990
2 28898 097.8961 099.0701 0019717 184.9495 175.1514 14.60140927209748
PEHUENSAT 1
1 29712U 07001D   16304.84831419 +.00006147 +00000-0 +37224-3 0  9990
2 29712 097.5716 325.3857 0006947 357.8319 002.2879 15.10942938532698
DELFI C3
1 32789U 08021G   16304.89162602 +.00003485 +00000-0 +25629-3 0  9995
2 32789 097.5924 001.6872 0014146 154.1041 206.0896 15.03978841462293
YUBELEINY
1 32953U 08025A   16304.74039203 +.00000025 +00000-0 +10811-3 0  9990
2 32953 082.5072 022.3503 0019744 068.9937 291.3253 12.43072351382916
PRISM (HITOMI)
1 33493U 09002B   16304.66441407 +.00002138 +00000-0 +19955-3 0  9995
2 33493 098.1969 171.0219 0016643 117.0608 243.2313 14.95265529421474
STARS (KUKAI)
1 33498U 09002G   16304.92385238 +.00000564 +00000-0 +85000-4 0  9994
2 33498 098.3032 105.4708 0011183 011.0281 143.8985 14.78392420417590
KKS-1 (KISEKI)
1 33499U 09002H   16304.94429428 +.00000300 +00000-0 +52535-4 0  9992
2 33499 098.3059 097.9927 0009774 031.4433 328.7358 14.75081530417149
SUMBANDILA
1 35870U 09049F   16304.73525477 +.00009222 +00000-0 +16201-3 0  9997
2 35870 097.1154 317.8578 0002244 120.1192 328.5624 15.50722521397637
XIWANG-1 (HOPE-1)
1 36122U 09072B   16304.95610845 -.00000013 +00000-0 +77893-4 0  9997
2 36122 100.1285 335.2311 0007990 047.8253 312.3538 13.16336732330360
JUGNU
1 37839U 11058B   16304.65067584 +.00000364 +00000-0 +52033-4 0  9990
2 37839 019.9622 042.2332 0018844 173.0162 327.3249 14.12560248261093
SRMSAT
1 37841U 11058D   16304.73936990 +.00000321 +00000-0 +31596-4 0  9992
2 37841 019.9719 078.6602 0011918 080.5763 058.3885 14.10556563260842
RAX-2
1 37853U 11061D   16304.88860948 +.00002852 +00000-0 +16939-3 0  9998
2 37853 101.7075 050.2261 0179061 044.5152 317.0285 15.00502007272243
AUBIESAT-1
1 37854U 11061E   16304.87753350 +.00002655 +00000-0 +15158-3 0  9999
2 37854 101.6990 055.9885 0170467 033.0911 328.0828 15.03068683272021
M-CUBED/EXP-1 PRIME
1 37855U 11061F   16304.86056317 +.00003365 +00000-0 +18614-3 0  9997
2 37855 101.7112 053.9338 0183802 038.2217 323.1860 15.02007989272352
CHIBIS-M
1 38051U 11062C   14288.65876392  .70201582  12497-4  27925-2 0  9995
2 38051 051.5964 324.1908 0006422 269.6897 186.8903 16.43533377153081
MASAT-1
1 38081U 12006E   15009.86954674  .36181825  49011-5  43735-3 0  9992
2 38081 069.4150 141.5751 0006093 101.2598 259.4750 16.49686879155248


======================================================================
Genio y figura, hasta la sepultura.
======================================================================
        __  __  __ __
|  /  \(__\|  \/  |_    BBS GF05OM TORTUGUITAS 145010Mhz
|__\__/ __/|__/\__|__   TELNET LU9DCE.DYNU.COM PORT 6300
== power by linux ===   NODO LU9DCE.DYNU.COM PORT 3694

## AMPR NET 44 // LU9DCE.AMPR.ORG // 44.153.32.97
## https://www.facebook.com/groups/newpacketradio/
## https://chat.whatsapp.com/Id3cEQjDdXl8BL0Sik4lGQ



Read previous mail | Read next mail


 16.09.2025 12:51:08lGo back Go up